#timestamp,LO_Frequency,Hit,StdDev 
1582077615.1,286047000.1,N
1582077635.8,286047000.0,N
1582077655.7,286047001.2,N
1582077675.5,286046998.9,N
1582077695.4,286046998.9,N
1582077715.2,286047000.0,N
1582077735.0,286046999.7,N
1582077735.9,286046999.7,N
1582077755.8,286046999.8,N
1582077775.6,286047000.7,N
1582077795.5,286046998.3,N
1582077815.3,286046999.0,N
1582077835.1,286046998.7,N
1582077855.9,286046998.3,N
1582077875.7,286046996.9,Y
1582077895.5,286046997.2,P
1582077915.4,286046999.2,N
1582077935.2,286046999.2,N
1582077955.1,286046994.9,Y
1582077956.0,286046994.9,P
1582077975.8,286046999.4,N
1582077995.7,286046999.3,N
1582078015.5,286046996.5,N
1582078035.3,286046996.8,N
1582078055.2,286047000.8,N
1582078075.0,286046998.7,N
1582078075.9,286046998.7,N
1582078095.7,286046999.0,N
1582078115.6,286046998.3,N
1582078135.4,286047001.2,N
1582078155.3,286047002.8,N
1582078175.1,286046999.8,N
1582078195.8,286047000.1,N
1582078215.7,286047002.7,N
1582078235.5,286047002.7,N
1582078255.4,286047002.6,N
1582078275.2,286047001.6,N
1582078295.0,286047002.6,N
1582078295.9,286047002.6,N
1582078315.8,286046998.1,N
1582078335.6,286047002.6,N
1582078355.5,286047002.8,N
1582078375.3,286047004.4,N
1582078395.1,286047003.6,N
1582078415.9,286047004.4,N
1582078435.7,286047002.0,N
1582078455.6,286047003.8,N
1582078475.4,286047003.0,N
1582078495.2,286047003.8,N
1582078515.1,286047002.0,N
1582078516.0,286047002.0,N
1582078535.8,286046998.2,N
1582078555.7,286046998.4,N
1582078575.5,286046998.4,N
1582078595.3,286046998.3,N
1582078615.2,286046998.6,N
1582078635.0,286047002.8,N
1582078635.9,286047002.8,N
1582078655.7,286047000.2,N
1582078675.6,286046998.2,N
1582078695.4,286047000.8,N
1582078715.3,286047001.0,N
1582078735.1,286047000.6,N
1582078755.8,286047002.6,N
1582078775.7,286047004.0,N
1582078795.5,286047005.6,N
1582078815.4,286047003.8,N
1582078835.2,286047003.9,N
1582078855.0,286046999.7,N
1582078855.9,286046999.7,N
1582078875.8,286047002.3,N
1582078895.6,286047001.5,N
1582078915.5,286047001.3,N
1582078935.3,286047001.7,N
1582078955.1,286047002.4,N
1582078975.9,286047000.8,N
1582078995.7,286047000.7,N
1582079015.5,286047001.1,N
1582079035.4,286047002.1,N
1582079055.2,286047001.4,N
1582079075.1,286047003.6,N
1582079076.0,286047003.6,N
1582079095.8,286047004.4,N
1582079115.6,286047003.7,N
1582079135.5,286047003.1,N
1582079155.3,286047004.1,N
1582079175.1,286047004.4,N
1582079195.9,286047001.3,N
1582079215.7,286047002.0,N
1582079235.6,286047002.2,N
1582079285.4,286046999.9,E
1582079295.3,286046999.7,N
1582079315.2,286047000.2,P
1582079335.0,286047002.3,P
1582079335.9,286047002.3,N
1582079355.7,286047001.9,N
1582079375.6,286047002.8,N
1582079395.4,286047000.9,N
1582079415.3,286046999.0,N
1582079435.1,286046998.8,N
1582079436.0,286046998.8,N
1582079455.8,286046999.4,N
1582079475.7,286047002.3,N
1582079495.5,286047002.7,N
1582079515.4,286047002.0,N
1582079535.2,286047001.7,N
1582079555.0,286047002.1,N
1582079555.9,286047002.1,N
1582079575.8,286047000.2,N
1582079595.6,286047000.9,N
1582079615.4,286047001.1,N
1582079635.3,286047000.7,N
1582079655.1,286046998.6,N
1582079675.9,286046998.7,N
1582079695.7,286046999.2,N
1582079715.5,286046998.5,N
1582079735.4,286047002.3,N
1582079755.2,286047001.8,N
1582079775.1,286047000.2,N
1582079776.0,286047000.2,N
1582079795.8,286047002.3,N
1582079815.6,286047002.5,N
1582079835.5,286047001.2,N
1582079855.3,286047000.7,N
1582079875.1,286047001.2,N
1582079895.9,286047001.2,N
1582079915.7,286047000.7,N
1582079935.6,286047002.5,N
1582079955.4,286047002.5,N
1582079975.2,286047004.0,N
1582079995.1,286047001.5,N
1582079996.0,286047001.5,N
1582080015.8,286047002.3,N
1582080035.7,286047000.6,N
1582080055.5,286047000.2,N
1582080075.3,286047002.8,N
1582080095.2,286046999.8,N
1582080115.0,286047002.4,N
1582080115.9,286047002.4,N
1582080135.8,286047000.9,N
1582080155.6,286047001.1,N
1582080175.4,286047000.6,N
1582080195.3,286047000.1,N
1582080215.1,286047001.6,N
1582080235.8,286047001.3,N
1582080255.7,286047002.6,N
1582080275.5,286046999.9,N
1582080295.4,286047001.0,N
1582080315.2,286047000.2,N
1582080335.0,286047000.1,N
1582080335.9,286047000.1,N
1582080355.8,286047001.3,N
1582080375.6,286047003.1,Y
1582080395.4,286046998.5,P
1582080415.3,286046997.6,N
1582080435.1,286046996.7,N
1582080455.9,286046995.2,N
1582080475.7,286046995.2,N
1582080495.5,286046997.5,N
1582080515.4,286046998.0,N
1582080535.2,286046997.5,N
1582080555.1,286046997.6,N
1582080556.0,286046997.6,N
1582080575.8,286046996.8,N
1582080595.6,286046998.8,N
1582080615.5,286046995.6,N
1582080635.3,286046992.8,Y
1582080655.2,286046997.7,P
1582080675.9,286046996.7,P
1582080695.7,286046998.6,P
1582080715.6,286046998.3,N
1582080735.4,286046999.5,N
1582080755.2,286046999.0,N
1582080775.1,286046999.8,N
1582080776.0,286046999.8,N
1582080795.8,286047001.9,N
1582080815.7,286047001.8,N
1582080835.5,286047002.8,N
1582080855.3,286047000.1,N
1582080875.2,286046999.7,N
1582080895.0,286047000.0,N
1582080895.9,286047000.0,N
1582080915.8,286047001.1,N
1582080935.6,286047002.4,N
1582080955.4,286047001.5,N
1582080975.3,286047004.3,N
1582080995.1,286047001.4,N
1582081015.9,286047004.2,N
1582081035.7,286047003.6,N
1582081055.5,286047005.1,N
1582081075.4,286047007.5,Y
1582081095.2,286047005.3,P
1582081115.1,286047005.4,N
1582081116.0,286047005.4,N
1582081135.8,286047003.5,N
1582081155.6,286047003.5,N
1582081175.5,286047005.1,Y
1582081195.3,286046998.5,P
